SL-16 DEB, 22493

Orbit data source: Space-Track

SL-16 DEB, 22493 is space debris in LEO originally from a launch on Fri, 25 Dec 1992 UTC launched from the Tyuratam Missile And Space Complex (TTMTR). Debris objects in space refer to the collection of defunct objects orbiting the Earth. Examples of debris include non-operational satellites, rocket bodies, and fragments generated from explosions, collisions, or faulty payload assembly.

Loading next visibility...
Identifier
22493, 1992-093GC
Orbit
LEO
Country
Flag of CISCIS
Related business
Manufacturer
Unknown
Mission
Spacecraft
Bus & Motor
Unknown
Mass
Unknown
Launch date (UTC)
1992-12-25 (33 years ago)
Launch vehicle
Unknown
Launch site
Tyuratam Missile And Space Complex (TTMTR)
Object type
Payload
Rocket body
Debris
Shape & HBR
Unknown shape, 0.1 m
Radar Cross Section
Small (<0.1 m²)

Expand to show TLE details & history
Last TLE update: 11 hours ago

TLE from 11 hours ago
0 SL-16 DEB
1 22493U 92093GC  26126.92067941  .00001387  00000-0  32452-3 0  9996
2 22493  71.0371 307.7274 0096138 243.9945 115.1274 14.53714713765021
Epoch: 2026-05-06T22:05Z
TLE epoch observation values (Epoch: 2026-05-06T22:05:46.701Z)
Latitude
0.00003°
Longitude
111.50858°
Altitude
745.477 km
Speed
7.467 km/s
True Right ascension
20h 30m 54s
True Declination
0° 00' 00"
Sunlit
Object was in daylight at epoch
Visualization orbit readout
Latitude
Unknown
Longitude
Unknown
Altitude
Unknown
Speed
Unknown
Apparent Right ascension
Unknown
Apparent Declination
Unknown
Sunlit
N/A
Visualization observer readout
Local Sidereal Time
17:22:19
Azimuth
Unknown
Elevation
Unknown
Doppler factor
Unknown
Orbital elements
Apogee altitude
779.582 km
Perigee altitude
643.267 km
Semi-major axis
7,089.562 km
Eccentricity
0.00961
Inclination
71.0371°
RAAN
307.7274°
Arg. of periapsis
243.9945°
True anomaly
116.11969°
Mean anomaly
115.1274°
Eccentric anomaly
115.62406°
Mean motion
3.63592 °/min
Orbital period
99.01 mins
BSTAR
0.00032452
Loading maneuver chart data...
Computing Atmospheric mass density...
Loading historical data...
Loading historical data...
Loading historical data...
Loading historical data...
Loading historical data...
Loading historical data...
Loading historical data...

Documentation

Showing up to 5 results
|